TimeCDT,TemperatureF,Dew PointF,Humidity,Sea Level PressureIn,VisibilityMPH,Wind Direction,Wind SpeedMPH,Gust SpeedMPH,PrecipitationIn,Events,Conditions,WindDirDegrees,DateUTC
12:56 AM,50.9,45.0,80,30.17,10.0,NNE,8.1,-,N/A,,Clear,30,2012-09-28 05:56:00
1:56 AM,50.0,45.9,86,30.16,10.0,NNE,8.1,-,N/A,,Clear,30,2012-09-28 06:56:00
2:56 AM,50.9,45.9,83,30.15,10.0,NNE,5.8,-,N/A,,Clear,30,2012-09-28 07:56:00
3:56 AM,50.0,45.0,83,30.16,10.0,NNE,5.8,-,N/A,,Clear,20,2012-09-28 08:56:00
4:56 AM,47.8,43.9,86,30.17,10.0,NNW,4.6,-,N/A,,Clear,340,2012-09-28 09:56:00
5:56 AM,45.9,43.9,93,30.17,10.0,NNW,6.9,-,N/A,,Clear,340,2012-09-28 10:56:00
6:56 AM,46.9,43.0,86,30.18,10.0,NNW,8.1,-,N/A,,Clear,330,2012-09-28 11:56:00
7:56 AM,46.9,43.0,86,30.19,10.0,NNW,8.1,-,N/A,,Clear,340,2012-09-28 12:56:00
8:56 AM,50.0,43.9,79,30.20,10.0,NNW,10.4,-,N/A,,Clear,340,2012-09-28 13:56:00
9:56 AM,57.9,43.9,60,30.19,10.0,NNW,11.5,-,N/A,,Clear,340,2012-09-28 14:56:00
10:56 AM,63.0,43.0,48,30.19,10.0,NNW,17.3,-,N/A,,Clear,340,2012-09-28 15:56:00
11:56 AM,64.9,45.0,48,30.19,10.0,North,17.3,-,N/A,,Clear,10,2012-09-28 16:56:00
12:56 PM,66.9,46.9,49,30.17,10.0,NNW,13.8,-,N/A,,Clear,340,2012-09-28 17:56:00
1:56 PM,68.9,48.9,49,30.13,10.0,NNE,13.8,-,N/A,,Clear,30,2012-09-28 18:56:00
2:56 PM,68.0,48.9,50,30.12,10.0,NNE,10.4,-,N/A,,Mostly Cloudy,30,2012-09-28 19:56:00
3:56 PM,70.9,48.9,46,30.10,10.0,NNE,12.7,-,N/A,,Mostly Cloudy,30,2012-09-28 20:56:00
4:56 PM,68.9,47.8,47,30.10,10.0,North,9.2,-,N/A,,Partly Cloudy,10,2012-09-28 21:56:00
5:56 PM,64.9,48.9,56,30.12,10.0,NE,10.4,-,N/A,,Partly Cloudy,40,2012-09-28 22:56:00
6:56 PM,61.0,47.8,62,30.12,10.0,NNE,5.8,-,N/A,,Clear,30,2012-09-28 23:56:00
7:56 PM,57.9,47.8,69,30.14,10.0,NE,6.9,-,N/A,,Clear,40,2012-09-29 00:56:00
8:56 PM,54.9,46.9,75,30.13,10.0,ENE,9.2,-,N/A,,Clear,60,2012-09-29 01:56:00
9:56 PM,52.9,47.8,83,30.14,10.0,ENE,8.1,-,N/A,,Clear,60,2012-09-29 02:56:00
10:56 PM,50.9,45.9,83,30.15,10.0,ENE,5.8,-,N/A,,Clear,60,2012-09-29 03:56:00
11:56 PM,50.9,45.9,83,30.15,5.0,NNE,5.8,-,N/A,,Haze,30,2012-09-29 04:56:00